{"data":{"norad_id":24278,"epoch":"2026-09-19T19:08:38.957568Z","epoch_age_seconds":71945,"freshness":"FRESH","line1":"1 24278U 96046B   26262.79767312  .00000004  00000+0  40673-4 0  9995","line2":"2 24278  98.5165  98.6980 0349339 210.7684 147.2558 13.53278316485961","mean_motion":13.53278316,"eccentricity":0.0349339,"inclination_deg":98.5165,"raan_deg":98.698,"arg_perigee_deg":210.7684,"mean_anomaly_deg":147.2558,"bstar":4.0673e-5,"rev_number":48596,"period_min":106.40826672346,"perigee_km":800.37040974824,"apogee_km":1320.072137954,"semimajor_km":7438.3582738511,"source":"CELESTRAK","updated_at":"2026-09-20T09:00:45.227665Z"}}